Content
SEND FEEDBACK

Daily
Averages
Monthly
Summary
United States of America

POTTS JUNCTION, GUAM


Home > North America > United States > Guam
Elevation: 110 meters     Latitude: 13 33N     Longitude: 144 50E

WEATHER
 
SELECT A DAY
Number of Records: 213,081;   Date Range: 1/1/95 - 9/30/14
 
SHARE

PRINT THIS DATA

[ ← Previous Day ]
WEATHER ALMANAC - 16 DECEMBER, 2013
[ Next Day → ]
[ °F ]   °C
Weather ElementAverageHighLow
Temperature27.8 °C30 °C (11:54 am)25 °C (10:54 pm)
Dewpoint22.9 °C23.9 °C (1:54 am)21.7 °C (12:54 pm)
Humidity75 %90 % (3:54 am)61 % (2:54 pm)
Barometer1009.8 hPa1011.5 hPa (9:42 am)1008.1 hPa (2:54 pm)
Wind Speed19 km/h29.6 km/h (9:42 am)
Wind Gust42.6 km/h (9:42 am)
Weather ElementAverage
Visibility16.1 km
Wind DirectionENE (56.9 °)

Weather ElementTotal
Precipitation0.51 mm
Cooling Degree Days9.2 (Base 18.3)
Growing Degree Days17.5 (Base 10)
Averaged from 29 records on 16 December, 2013
WEATHER CONDITIONS BREAKOUT
WIND DIRECTION BREAKOUT
WEATHER BY HOUR - 16 DECEMBER, 2013
[ °F ]   °C
Local TimeTemperatureDewpointHumidityBarometerVisibilityWind DirectionWind SpeedGust SpeedPrecipitationEventsConditions
1:54 AM26.1 °C23.9 °C88 %1010.2 hPa16.1 kmNE (40°)14.8 km/hMostly Cloudy
2:54 AM26.1 °C23.9 °C88 %1009.5 hPa16.1 kmENE (60°)14.8 km/hMostly Cloudy
3:54 AM25.6 °C23.9 °C90 %1009.1 hPa16.1 kmNE (50°)13 km/h0.25 mmScattered Clouds
4:54 AM26.1 °C23.9 °C88 %1009.5 hPa16.1 kmENE (70°)14.8 km/hPartly Cloudy
5:54 AM25.6 °C22.2 °C81 %1009.5 hPa16.1 kmENE (70°)22.2 km/h0.25 mmMostly Cloudy
6:54 AM26.1 °C23.3 °C84 %1009.8 hPa16.1 kmENE (60°)16.7 km/hMostly Cloudy
7:54 AM27.2 °C23.9 °C82 %1010.2 hPa16.1 kmENE (70°)16.7 km/hScattered Clouds
8:54 AM27.8 °C23.9 °C79 %1010.8 hPa16.1 kmENE (70°)18.5 km/h0 mmPartly Cloudy
9:42 AM29 °C23 °C70 %1011.5 hPa16.1 kmENE (60°)29.6 km/h42.6 km/hMostly Cloudy
9:52 AM29 °C23 °C70 %1011.5 hPa16.1 kmENE (70°)24.1 km/h37 km/hScattered Clouds
9:54 AM28.9 °C23.3 °C72 %1010.8 hPa16.1 kmEast (80°)24.1 km/hScattered Clouds
10:54 AM29.4 °C23.3 °C69 %1010.5 hPa16.1 kmEast (90°)18.5 km/h37 km/hPartly Cloudy
11:54 AM30 °C23.3 °C67 %1009.8 hPa16.1 kmENE (60°)22.2 km/hScattered Clouds
12:05 PM30 °C23 °C66 %1010.5 hPa16.1 kmEast (80°)25.9 km/hMostly Cloudy
12:23 PM30 °C22 °C62 %1010.2 hPa16.1 kmENE (60°)27.8 km/hScattered Clouds
12:54 PM29.4 °C21.7 °C63 %1009.1 hPa16.1 kmENE (70°)24.1 km/hScattered Clouds
1:54 PM30 °C22.8 °C65 %1008.5 hPa16.1 kmENE (60°)24.1 km/hScattered Clouds
2:05 PM30 °C23 °C66 %1009.1 hPa16.1 kmENE (70°)22.2 km/hMostly Cloudy
2:29 PM30 °C22 °C62 %1008.8 hPa16.1 kmENE (60°)22.2 km/hScattered Clouds
2:54 PM30 °C21.7 °C61 %1008.1 hPa16.1 kmNE (50°)22.2 km/hScattered Clouds
3:54 PM29.4 °C22.2 °C65 %1008.1 hPa16.1 kmENE (60°)25.9 km/hScattered Clouds
4:54 PM28.3 °C22.2 °C69 %1008.8 hPa16.1 kmNE (40°)22.2 km/hPartly Cloudy
5:54 PM27.2 °C22.8 °C77 %1009.1 hPa16.1 kmNE (40°)22.2 km/hMostly Cloudy
6:54 PM26.7 °C22.8 °C79 %1009.1 hPa16.1 kmNE (40°)13 km/hMostly Cloudy
7:54 PM26.7 °C22.8 °C79 %1009.8 hPa16.1 kmNE (40°)9.3 km/hPartly Cloudy
8:54 PM26.1 °C22.8 °C82 %1010.2 hPa16.1 kmNNE (30°)13 km/hClear
9:54 PM25.6 °C22.8 °C84 %1010.2 hPa16.1 kmNNE (30°)5.6 km/hPartly Cloudy
10:54 PM25 °C22.2 °C84 %1010.2 hPa16.1 kmNNE (20°)9.3 km/hClear
11:54 PM25.6 °C22.8 °C84 %1009.5 hPa16.1 kmNE (50°)13 km/hClear
Hourly data recorded from PGUM, located 0 kilometers away from Potts Junction, Guam







STORIES FROM OUR PARTNERS